Year,Month,Day,Hour,Minute,Value (Times are PST for temperature in C)
2022,01,25,00,00,-10.00
2022,01,25,00,01,-10.00
2022,01,25,00,02,-10.00
2022,01,25,00,03,-9.90
2022,01,25,00,04,-9.90
2022,01,25,00,05,-10.00
2022,01,25,00,06,-10.00
2022,01,25,00,07,-10.00
2022,01,25,00,08,-10.00
2022,01,25,00,09,-10.00
2022,01,25,00,10,-10.00
2022,01,25,00,11,-10.00
2022,01,25,00,12,-10.00
2022,01,25,00,13,-10.00
2022,01,25,00,14,-10.00
2022,01,25,00,15,-10.00
2022,01,25,00,16,-10.00
2022,01,25,00,17,-10.00
2022,01,25,00,18,-10.00
2022,01,25,00,19,-10.00
2022,01,25,00,20,-10.00
2022,01,25,00,21,-10.10
2022,01,25,00,22,-10.10
2022,01,25,00,23,-10.10
2022,01,25,00,24,-10.10
2022,01,25,00,25,-10.10
2022,01,25,00,26,-10.10
2022,01,25,00,27,-10.10
2022,01,25,00,28,-10.10
2022,01,25,00,29,-10.10
2022,01,25,00,30,-10.10
2022,01,25,00,31,-10.10
2022,01,25,00,32,-10.10
2022,01,25,00,33,-10.10
2022,01,25,00,34,-10.20
2022,01,25,00,35,-10.20
2022,01,25,00,36,-10.20
2022,01,25,00,37,-10.20
2022,01,25,00,38,-10.20
2022,01,25,00,39,-10.20
2022,01,25,00,40,-10.20
2022,01,25,00,41,-10.20
2022,01,25,00,42,-10.30
2022,01,25,00,43,-10.20
2022,01,25,00,44,-10.30
2022,01,25,00,45,-10.30
2022,01,25,00,46,-10.40
2022,01,25,00,47,-10.40
2022,01,25,00,48,-10.30
2022,01,25,00,49,-10.30
2022,01,25,00,50,-10.30
2022,01,25,00,51,-10.30
2022,01,25,00,52,-10.30
2022,01,25,00,53,-10.40
2022,01,25,00,54,-10.40
2022,01,25,00,55,-10.40
2022,01,25,00,56,-10.40
2022,01,25,00,57,-10.40
2022,01,25,00,58,-10.40
2022,01,25,00,59,-10.30
2022,01,25,01,00,-10.40
2022,01,25,01,01,-10.50
2022,01,25,01,02,-10.60
2022,01,25,01,03,-10.60
2022,01,25,01,04,-10.60
2022,01,25,01,05,-10.70
2022,01,25,01,06,-10.70
2022,01,25,01,07,-10.70
2022,01,25,01,08,-10.70
2022,01,25,01,09,-10.70
2022,01,25,01,10,-10.70
2022,01,25,01,11,-10.70
2022,01,25,01,12,-10.70
2022,01,25,01,13,-10.70
2022,01,25,01,14,-10.70
2022,01,25,01,15,-10.70
2022,01,25,01,16,-10.70
2022,01,25,01,17,-10.70
2022,01,25,01,18,-10.70
2022,01,25,01,19,-10.70
2022,01,25,01,20,-10.70
2022,01,25,01,21,-10.70
2022,01,25,01,22,-10.70
2022,01,25,01,23,-10.70
2022,01,25,01,24,-10.70
2022,01,25,01,25,-10.70
2022,01,25,01,26,-10.70
2022,01,25,01,27,-10.60
2022,01,25,01,28,-10.60
2022,01,25,01,29,-10.60
2022,01,25,01,30,-10.60
2022,01,25,01,31,-10.60
2022,01,25,01,32,-10.60
2022,01,25,01,33,-10.60
2022,01,25,01,34,-10.60
2022,01,25,01,35,-10.60
2022,01,25,01,36,-10.60
2022,01,25,01,37,-10.60
2022,01,25,01,38,-10.60
2022,01,25,01,39,-10.60
2022,01,25,01,40,-10.60
2022,01,25,01,41,-10.70
2022,01,25,01,42,-10.70
2022,01,25,01,43,-10.70
2022,01,25,01,44,-10.70
2022,01,25,01,45,-10.70
2022,01,25,01,46,-10.60
2022,01,25,01,47,-10.70
2022,01,25,01,48,-10.70
2022,01,25,01,49,-10.70
2022,01,25,01,50,-10.70
2022,01,25,01,51,-10.70
2022,01,25,01,52,-10.70
2022,01,25,01,53,-10.70
2022,01,25,01,54,-10.70
2022,01,25,01,55,-10.70
2022,01,25,01,56,-10.70
2022,01,25,01,57,-10.70
2022,01,25,01,58,-10.70
2022,01,25,01,59,-10.70
2022,01,25,02,00,-10.70
2022,01,25,02,01,-10.70
2022,01,25,02,02,-10.70
2022,01,25,02,03,-10.70
2022,01,25,02,04,-10.70
2022,01,25,02,05,-10.70
2022,01,25,02,06,-10.70
2022,01,25,02,07,-10.70
2022,01,25,02,08,-10.70
2022,01,25,02,09,-10.80
2022,01,25,02,10,-10.80
2022,01,25,02,11,-10.80
2022,01,25,02,12,-10.80
2022,01,25,02,13,-10.80
2022,01,25,02,14,-10.80
2022,01,25,02,15,-10.80
2022,01,25,02,16,-10.80
2022,01,25,02,17,-10.80
2022,01,25,02,18,-10.80
2022,01,25,02,19,-10.90
2022,01,25,02,20,-10.90
2022,01,25,02,21,-10.90
2022,01,25,02,22,-10.80
2022,01,25,02,23,-10.80
2022,01,25,02,24,-10.80
2022,01,25,02,25,-10.80
2022,01,25,02,26,-10.80
2022,01,25,02,27,-10.80
2022,01,25,02,28,-10.80
2022,01,25,02,29,-10.80
2022,01,25,02,30,-10.80
2022,01,25,02,31,-10.80
2022,01,25,02,32,-10.80
2022,01,25,02,33,-10.80
2022,01,25,02,34,-10.80
2022,01,25,02,35,-10.80
2022,01,25,02,36,-10.80
2022,01,25,02,37,-10.80
2022,01,25,02,38,-10.80
2022,01,25,02,39,-10.80
2022,01,25,02,40,-10.80
2022,01,25,02,41,-10.80
2022,01,25,02,42,-10.80
2022,01,25,02,43,-10.80
2022,01,25,02,44,-10.90
2022,01,25,02,45,-10.90
2022,01,25,02,46,-10.90
2022,01,25,02,47,-10.90
2022,01,25,02,48,-10.90
2022,01,25,02,49,-10.90
2022,01,25,02,50,-10.90
2022,01,25,02,51,-10.90
2022,01,25,02,52,-10.90
2022,01,25,02,53,-10.90
2022,01,25,02,54,-10.90
2022,01,25,02,55,-10.90
2022,01,25,02,56,-10.90
2022,01,25,02,57,-10.90
2022,01,25,02,58,-10.90
2022,01,25,02,59,-10.90
2022,01,25,03,00,-10.90
2022,01,25,03,01,-10.90
2022,01,25,03,02,-10.90
2022,01,25,03,03,-10.90
2022,01,25,03,04,-10.90
2022,01,25,03,05,-10.90
2022,01,25,03,06,-10.90
2022,01,25,03,07,-10.90
2022,01,25,03,08,-10.90
2022,01,25,03,09,-11.00
2022,01,25,03,10,-11.00
2022,01,25,03,11,-11.00
2022,01,25,03,12,-11.10
2022,01,25,03,13,-11.10
2022,01,25,03,14,-11.10
2022,01,25,03,15,-11.10
2022,01,25,03,16,-11.10
2022,01,25,03,17,-11.10
2022,01,25,03,18,-11.10
2022,01,25,03,19,-11.10
2022,01,25,03,20,-11.10
2022,01,25,03,21,-11.10
2022,01,25,03,22,-11.10
2022,01,25,03,23,-11.10
2022,01,25,03,24,-11.10
2022,01,25,03,25,-11.10
2022,01,25,03,26,-11.10
2022,01,25,03,27,-11.10
2022,01,25,03,28,-11.10
2022,01,25,03,29,-11.20
2022,01,25,03,30,-11.20
2022,01,25,03,31,-11.20
2022,01,25,03,32,-11.20
2022,01,25,03,33,-11.20
2022,01,25,03,34,-11.20
2022,01,25,03,35,-11.20
2022,01,25,03,36,-11.20
2022,01,25,03,37,-11.20
2022,01,25,03,38,-11.20
2022,01,25,03,39,-11.20
2022,01,25,03,40,-11.20
2022,01,25,03,41,-11.20
2022,01,25,03,42,-11.20
2022,01,25,03,43,-11.20
2022,01,25,03,44,-11.20
2022,01,25,03,45,-11.20
2022,01,25,03,46,-11.20
2022,01,25,03,47,-11.20
2022,01,25,03,48,-11.20
2022,01,25,03,49,-11.20
2022,01,25,03,50,-11.20
2022,01,25,03,51,-11.20
2022,01,25,03,52,-11.20
2022,01,25,03,53,-11.20
2022,01,25,03,54,-11.30
2022,01,25,03,55,-11.30
2022,01,25,03,56,-11.30
2022,01,25,03,57,-11.30
2022,01,25,03,58,-11.30
2022,01,25,03,59,-11.30
2022,01,25,04,00,-11.30
2022,01,25,04,01,-11.30
2022,01,25,04,02,-11.30
2022,01,25,04,03,-11.30
2022,01,25,04,04,-11.30
2022,01,25,04,05,-11.30
2022,01,25,04,06,-11.30
2022,01,25,04,07,-11.30
2022,01,25,04,08,-11.20
2022,01,25,04,09,-11.20
2022,01,25,04,10,-11.20
2022,01,25,04,11,-11.20
2022,01,25,04,12,-11.20
2022,01,25,04,13,-11.20
2022,01,25,04,14,-11.20
2022,01,25,04,15,-11.20
2022,01,25,04,16,-11.20
2022,01,25,04,17,-11.20
2022,01,25,04,18,-11.20
2022,01,25,04,19,-11.20
2022,01,25,04,20,-11.20
2022,01,25,04,21,-11.20
2022,01,25,04,22,-11.20
2022,01,25,04,23,-11.20
2022,01,25,04,24,-11.10
2022,01,25,04,25,-11.10
2022,01,25,04,26,-11.10
2022,01,25,04,27,-11.10
2022,01,25,04,28,-11.10
2022,01,25,04,29,-11.10
2022,01,25,04,30,-11.10
2022,01,25,04,31,-11.10
2022,01,25,04,32,-11.10
2022,01,25,04,33,-11.10
2022,01,25,04,34,-11.10
2022,01,25,04,35,-11.10
2022,01,25,04,36,-11.00
2022,01,25,04,37,-11.00
2022,01,25,04,38,-11.00
2022,01,25,04,39,-11.00
2022,01,25,04,40,-11.00
2022,01,25,04,41,-11.00
2022,01,25,04,42,-11.00
2022,01,25,04,43,-11.00
2022,01,25,04,44,-11.00
2022,01,25,04,45,-10.90
2022,01,25,04,46,-10.90
2022,01,25,04,47,-10.90
2022,01,25,04,48,-10.90
2022,01,25,04,49,-10.90
2022,01,25,04,50,-10.90
2022,01,25,04,51,-10.90
2022,01,25,04,52,-10.90
2022,01,25,04,53,-10.90
2022,01,25,04,54,-10.90
2022,01,25,04,55,-10.90
2022,01,25,04,56,-10.90
2022,01,25,04,57,-10.90
2022,01,25,04,58,-10.80
2022,01,25,04,59,-10.80
2022,01,25,05,00,-10.80
2022,01,25,05,01,-10.80
2022,01,25,05,02,-10.80
2022,01,25,05,03,-10.80
2022,01,25,05,04,-10.80
2022,01,25,05,05,-10.80
2022,01,25,05,06,-10.80
2022,01,25,05,07,-10.80
2022,01,25,05,08,-10.80
2022,01,25,05,09,-10.80
2022,01,25,05,10,-10.80
2022,01,25,05,11,-10.80
2022,01,25,05,12,-10.80
2022,01,25,05,13,-10.80
2022,01,25,05,14,-10.80
2022,01,25,05,15,-10.80
2022,01,25,05,16,-10.80
2022,01,25,05,17,-10.80
2022,01,25,05,18,-10.80
2022,01,25,05,19,-10.80
2022,01,25,05,20,-10.80
2022,01,25,05,21,-10.80
2022,01,25,05,22,-10.80
2022,01,25,05,23,-10.80
2022,01,25,05,24,-10.80
2022,01,25,05,25,-10.80
2022,01,25,05,26,-10.80
2022,01,25,05,27,-10.80
2022,01,25,05,28,-10.80
2022,01,25,05,29,-10.80
2022,01,25,05,30,-10.80
2022,01,25,05,31,-10.80
2022,01,25,05,32,-10.80
2022,01,25,05,33,-10.80
2022,01,25,05,34,-10.80
2022,01,25,05,35,-10.80
2022,01,25,05,36,-10.80
2022,01,25,05,37,-10.80
2022,01,25,05,38,-10.80
2022,01,25,05,39,-10.80
2022,01,25,05,40,-10.80
2022,01,25,05,41,-10.80
2022,01,25,05,42,-10.80
2022,01,25,05,43,-10.80
2022,01,25,05,44,-10.80
2022,01,25,05,45,-10.80
2022,01,25,05,46,-10.80
2022,01,25,05,47,-10.80
2022,01,25,05,48,-10.80
2022,01,25,05,49,-10.80
2022,01,25,05,50,-10.80
2022,01,25,05,51,-10.80
2022,01,25,05,52,-10.80
2022,01,25,05,53,-10.80
2022,01,25,05,54,-10.80
2022,01,25,05,55,-10.80
2022,01,25,05,56,-10.70
2022,01,25,05,57,-10.70
2022,01,25,05,58,-10.70
2022,01,25,05,59,-10.70
2022,01,25,06,00,-10.70
2022,01,25,06,01,-10.70
2022,01,25,06,02,-10.70
2022,01,25,06,03,-10.70
2022,01,25,06,04,-10.70
2022,01,25,06,05,-10.70
2022,01,25,06,06,-10.70
2022,01,25,06,07,-10.70
2022,01,25,06,08,-10.70
2022,01,25,06,09,-10.70
2022,01,25,06,10,-10.70
2022,01,25,06,11,-10.70
2022,01,25,06,12,-10.70
2022,01,25,06,13,-10.70
2022,01,25,06,14,-10.70
2022,01,25,06,15,-10.70
2022,01,25,06,16,-10.70
2022,01,25,06,17,-10.70
2022,01,25,06,18,-10.70
2022,01,25,06,19,-10.70
2022,01,25,06,20,-10.70
2022,01,25,06,21,-10.70
2022,01,25,06,22,-10.70
2022,01,25,06,23,-10.70
2022,01,25,06,24,-10.70
2022,01,25,06,25,-10.70
2022,01,25,06,26,-10.70
2022,01,25,06,27,-10.70
2022,01,25,06,28,-10.70
2022,01,25,06,29,-10.70
2022,01,25,06,30,-10.70
2022,01,25,06,31,-10.70
2022,01,25,06,32,-10.70
2022,01,25,06,33,-10.70
2022,01,25,06,34,-10.70
2022,01,25,06,35,-10.70
2022,01,25,06,36,-10.70
2022,01,25,06,37,-10.70
2022,01,25,06,38,-10.70
2022,01,25,06,39,-10.70
2022,01,25,06,40,-10.70
2022,01,25,06,41,-10.70
2022,01,25,06,42,-10.70
2022,01,25,06,43,-10.70
2022,01,25,06,44,-10.70
2022,01,25,06,45,-10.70
2022,01,25,06,46,-10.70
2022,01,25,06,47,-10.70
2022,01,25,06,48,-10.70
2022,01,25,06,49,-10.70
2022,01,25,06,50,-10.70
2022,01,25,06,51,-10.70
2022,01,25,06,52,-10.70
2022,01,25,06,53,-10.60
2022,01,25,06,54,-10.60
2022,01,25,06,55,-10.60
2022,01,25,06,56,-10.60
2022,01,25,06,57,-10.60
2022,01,25,06,58,-10.60
2022,01,25,06,59,-10.60
2022,01,25,07,00,-10.60
2022,01,25,07,01,-10.60
2022,01,25,07,02,-10.60
2022,01,25,07,03,-10.60
2022,01,25,07,04,-10.60
2022,01,25,07,05,-10.60
2022,01,25,07,06,-10.60
2022,01,25,07,07,-10.60
2022,01,25,07,08,-10.60
2022,01,25,07,09,-10.60
2022,01,25,07,10,-10.60
2022,01,25,07,11,-10.60
2022,01,25,07,12,-10.60
2022,01,25,07,13,-10.60
2022,01,25,07,14,-10.60
2022,01,25,07,15,-10.60
2022,01,25,07,16,-10.60
2022,01,25,07,17,-10.60
2022,01,25,07,18,-10.60
2022,01,25,07,19,-10.60
2022,01,25,07,20,-10.60
2022,01,25,07,21,-10.60
2022,01,25,07,22,-10.60
2022,01,25,07,23,-10.60
2022,01,25,07,24,-10.60
2022,01,25,07,25,-10.60
2022,01,25,07,26,-10.60
2022,01,25,07,27,-10.60
2022,01,25,07,28,-10.60
2022,01,25,07,29,-10.60
2022,01,25,07,30,-10.60
2022,01,25,07,31,-10.60
2022,01,25,07,32,-10.60
2022,01,25,07,33,-10.60
2022,01,25,07,34,-10.60
2022,01,25,07,35,-10.60
2022,01,25,07,36,-10.60
2022,01,25,07,37,-10.60
2022,01,25,07,38,-10.60
2022,01,25,07,39,-10.60
2022,01,25,07,40,-10.60
2022,01,25,07,41,-10.60
2022,01,25,07,42,-10.60
2022,01,25,07,43,-10.60
2022,01,25,07,44,-10.60
2022,01,25,07,45,-10.60
2022,01,25,07,46,-10.60
2022,01,25,07,47,-10.60
2022,01,25,07,48,-10.60
2022,01,25,07,49,-10.60
2022,01,25,07,50,-10.60
2022,01,25,07,51,-10.60
2022,01,25,07,52,-10.60
2022,01,25,07,53,-10.60
2022,01,25,07,54,-10.60
2022,01,25,07,55,-10.60
2022,01,25,07,56,-10.60
2022,01,25,07,57,-10.60
2022,01,25,07,58,-10.60
2022,01,25,07,59,-10.60
2022,01,25,08,00,-10.60
2022,01,25,08,01,-10.60
2022,01,25,08,02,-10.60
2022,01,25,08,03,-10.50
2022,01,25,08,04,-10.60
2022,01,25,08,05,-10.50
2022,01,25,08,06,-10.50
2022,01,25,08,07,-10.50
2022,01,25,08,08,-10.50
2022,01,25,08,09,-10.50
2022,01,25,08,10,-10.50
2022,01,25,08,11,-10.50
2022,01,25,08,12,-10.50
2022,01,25,08,13,-10.50
2022,01,25,08,14,-10.50
2022,01,25,08,15,-10.50
2022,01,25,08,16,-10.50
2022,01,25,08,17,-10.50
2022,01,25,08,18,-10.50
2022,01,25,08,19,-10.50
2022,01,25,08,20,-10.50
2022,01,25,08,21,-10.50
2022,01,25,08,22,-10.50
2022,01,25,08,23,-10.40
2022,01,25,08,24,-10.40
2022,01,25,08,25,-10.40
2022,01,25,08,26,-10.40
2022,01,25,08,27,-10.40
2022,01,25,08,28,-10.40
2022,01,25,08,29,-10.40
2022,01,25,08,30,-10.40
2022,01,25,08,31,-10.40
2022,01,25,08,32,-10.40
2022,01,25,08,33,-10.40
2022,01,25,08,34,-10.40
2022,01,25,08,35,-10.40
2022,01,25,08,36,-10.40
2022,01,25,08,37,-10.40
2022,01,25,08,38,-10.40
2022,01,25,08,39,-10.40
2022,01,25,08,40,-10.40
2022,01,25,08,41,-10.40
2022,01,25,08,42,-10.40
2022,01,25,08,43,-10.40
2022,01,25,08,44,-10.40
2022,01,25,08,45,-10.40
2022,01,25,08,46,-10.40
2022,01,25,08,47,-10.40
2022,01,25,08,48,-10.40
2022,01,25,08,49,-10.40
2022,01,25,08,50,-10.40
2022,01,25,08,51,-10.40
2022,01,25,08,52,-10.40
2022,01,25,08,53,-10.40
2022,01,25,08,54,-10.40
2022,01,25,08,55,-10.40
2022,01,25,08,56,-10.40
2022,01,25,08,57,-10.40
2022,01,25,08,58,-10.40
2022,01,25,08,59,-10.40
2022,01,25,09,00,-10.40
2022,01,25,09,01,-10.40
2022,01,25,09,02,-10.40
2022,01,25,09,03,-10.40
2022,01,25,09,04,-10.40
2022,01,25,09,05,-10.40
2022,01,25,09,06,-10.40
2022,01,25,09,07,-10.40
2022,01,25,09,08,-10.40
2022,01,25,09,09,-10.40
2022,01,25,09,10,-10.40
2022,01,25,09,11,-10.40
2022,01,25,09,12,-10.50
2022,01,25,09,13,-10.40
2022,01,25,09,14,-10.40
2022,01,25,09,15,-10.40
2022,01,25,09,16,-10.40
2022,01,25,09,17,-10.50
2022,01,25,09,18,-10.40
2022,01,25,09,19,-10.50
2022,01,25,09,20,-10.50
2022,01,25,09,21,-10.50
2022,01,25,09,22,-10.50
2022,01,25,09,23,-10.50
2022,01,25,09,24,-10.50
2022,01,25,09,25,-10.50
2022,01,25,09,26,-10.50
2022,01,25,09,27,-10.50
2022,01,25,09,28,-10.50
2022,01,25,09,29,-10.50
2022,01,25,14,03,3.90
2022,01,25,14,04,3.80
2022,01,25,14,05,3.60
2022,01,25,14,06,3.40
2022,01,25,14,07,3.30
2022,01,25,14,08,3.20
2022,01,25,14,09,3.10
2022,01,25,14,10,3.00
2022,01,25,14,12,2.80
2022,01,25,14,13,2.80
2022,01,25,14,14,2.70
2022,01,25,14,15,2.60
2022,01,25,14,16,2.60
2022,01,25,14,19,2.50
2022,01,25,14,20,2.40
2022,01,25,14,21,2.40
2022,01,25,14,22,2.40
2022,01,25,14,23,2.40
2022,01,25,14,26,2.40
2022,01,25,14,27,2.40
2022,01,25,14,28,2.40
2022,01,25,14,29,2.40
2022,01,25,14,30,2.40
2022,01,25,14,31,2.40
2022,01,25,14,32,2.50
2022,01,25,14,33,2.50
2022,01,25,14,34,2.50
2022,01,25,14,35,2.60
2022,01,25,14,36,2.60
2022,01,25,14,37,2.60
2022,01,25,14,38,2.70
2022,01,25,14,39,2.70
2022,01,25,14,40,2.70
2022,01,25,14,41,2.70
2022,01,25,14,42,2.70
2022,01,25,14,43,2.80
2022,01,25,14,44,2.80
2022,01,25,14,45,2.80
2022,01,25,14,46,2.80
2022,01,25,14,47,2.80
2022,01,25,14,48,2.80
2022,01,25,14,49,2.80
2022,01,25,14,50,2.80
2022,01,25,14,51,2.70
2022,01,25,14,52,2.70
2022,01,25,14,53,2.70
2022,01,25,14,54,2.70
2022,01,25,14,55,2.70
2022,01,25,14,56,2.70
2022,01,25,14,57,2.70
2022,01,25,14,58,2.70
2022,01,25,14,59,2.70
2022,01,25,15,00,2.70
2022,01,25,15,01,2.70
2022,01,25,15,02,2.80
2022,01,25,15,03,2.80
2022,01,25,15,04,2.80
2022,01,25,15,05,2.80
2022,01,25,15,06,2.80
2022,01,25,15,07,2.80
2022,01,25,15,08,2.80
2022,01,25,15,09,2.80
2022,01,25,15,10,2.80
2022,01,25,15,11,2.80
2022,01,25,15,12,2.80
2022,01,25,15,13,2.80
2022,01,25,15,14,2.80
2022,01,25,15,15,2.80
2022,01,25,15,16,2.80
2022,01,25,15,17,2.80
2022,01,25,15,18,2.70
2022,01,25,15,19,2.70
2022,01,25,15,20,2.70
2022,01,25,15,21,2.80
2022,01,25,15,22,2.80
2022,01,25,15,23,2.70
2022,01,25,15,24,2.70
2022,01,25,15,25,2.70
2022,01,25,15,26,2.70
2022,01,25,15,27,2.70
2022,01,25,15,28,2.70
2022,01,25,15,29,2.70
2022,01,25,15,30,2.70
2022,01,25,15,31,2.70
2022,01,25,15,32,2.70
2022,01,25,15,33,2.70
2022,01,25,15,34,2.70
2022,01,25,15,35,2.70
2022,01,25,15,36,2.70
2022,01,25,15,37,2.70
2022,01,25,15,38,2.80
2022,01,25,15,39,2.80
2022,01,25,15,40,2.80
2022,01,25,15,41,2.80
2022,01,25,15,42,2.80
2022,01,25,15,43,2.80
2022,01,25,15,44,2.80
2022,01,25,15,45,2.80
2022,01,25,15,46,2.80
2022,01,25,15,47,2.80
2022,01,25,15,48,2.80
2022,01,25,15,49,2.80
2022,01,25,15,50,2.80
2022,01,25,15,51,2.80
2022,01,25,15,52,2.80
2022,01,25,15,53,2.80
2022,01,25,15,54,2.80
2022,01,25,15,55,2.70
2022,01,25,15,56,2.70
2022,01,25,15,57,2.70
2022,01,25,15,58,2.70
2022,01,25,15,59,2.70
2022,01,25,16,00,2.70
2022,01,25,16,01,2.70
2022,01,25,16,02,2.70
2022,01,25,16,03,2.70
2022,01,25,16,04,2.70
2022,01,25,16,05,2.70
2022,01,25,16,06,2.70
2022,01,25,16,07,2.70
2022,01,25,16,08,2.70
2022,01,25,16,09,2.70
2022,01,25,16,10,2.70
2022,01,25,16,11,2.70
2022,01,25,16,12,2.70
2022,01,25,16,13,2.70
2022,01,25,16,14,2.70
2022,01,25,16,15,2.70
2022,01,25,16,16,2.70
2022,01,25,16,17,2.70
2022,01,25,16,18,2.70
2022,01,25,16,19,2.70
2022,01,25,16,20,2.70
2022,01,25,16,21,2.70
2022,01,25,16,22,2.70
2022,01,25,16,23,2.70
2022,01,25,16,24,2.70
2022,01,25,16,25,2.70
2022,01,25,16,26,2.60
2022,01,25,16,27,2.60
2022,01,25,16,28,2.60
2022,01,25,16,29,2.60
2022,01,25,16,30,2.60
2022,01,25,16,31,2.60
2022,01,25,16,32,2.60
2022,01,25,16,33,2.60
2022,01,25,16,34,2.60
2022,01,25,16,35,2.60
2022,01,25,16,36,2.60
2022,01,25,16,37,2.60
2022,01,25,16,38,2.60
2022,01,25,16,39,2.60
2022,01,25,16,40,2.60
2022,01,25,16,41,2.60
2022,01,25,16,42,2.60
2022,01,25,16,43,2.60
2022,01,25,16,44,2.60
2022,01,25,16,45,2.60
2022,01,25,16,46,2.50
2022,01,25,16,47,2.50
2022,01,25,16,48,2.50
2022,01,25,16,49,2.50
2022,01,25,16,50,2.50
2022,01,25,16,51,2.40
2022,01,25,16,52,2.40
2022,01,25,16,53,2.40
2022,01,25,16,54,2.40
2022,01,25,16,55,2.40
2022,01,25,16,56,2.40
2022,01,25,16,57,2.40
2022,01,25,16,58,2.40
2022,01,25,16,59,2.40
2022,01,25,17,00,2.40
2022,01,25,17,01,2.40
2022,01,25,17,02,2.40
2022,01,25,17,03,2.40
2022,01,25,17,04,2.40
2022,01,25,17,05,2.40
2022,01,25,17,06,2.40
2022,01,25,17,07,2.40
2022,01,25,17,08,2.40
2022,01,25,17,09,2.40
2022,01,25,17,10,2.40
2022,01,25,17,11,2.40
2022,01,25,17,12,2.40
2022,01,25,17,13,2.30
2022,01,25,17,14,2.30
2022,01,25,17,15,2.30
2022,01,25,17,16,2.30
2022,01,25,17,17,2.30
2022,01,25,17,18,2.30
2022,01,25,17,19,2.30
2022,01,25,17,20,2.20
2022,01,25,17,21,2.20
2022,01,25,17,22,2.20
2022,01,25,17,23,2.20
2022,01,25,17,24,2.20
2022,01,25,17,25,2.20
2022,01,25,17,26,2.20
2022,01,25,17,27,2.20
2022,01,25,17,28,2.20
2022,01,25,17,29,2.20
2022,01,25,17,30,2.20
2022,01,25,17,31,2.10
2022,01,25,17,32,2.10
2022,01,25,17,33,2.10
2022,01,25,17,34,2.10
2022,01,25,17,35,2.10
2022,01,25,17,36,2.10
2022,01,25,17,37,2.10
2022,01,25,17,38,2.10
2022,01,25,17,39,2.00
2022,01,25,17,40,2.00
2022,01,25,17,41,2.00
2022,01,25,17,42,2.00
2022,01,25,17,43,2.00
2022,01,25,17,44,2.00
2022,01,25,17,45,2.00
2022,01,25,17,46,2.00
2022,01,25,17,47,2.00
2022,01,25,17,48,2.00
2022,01,25,17,49,2.00
2022,01,25,17,50,2.00
2022,01,25,17,51,2.00
2022,01,25,17,52,1.90
2022,01,25,17,53,1.90
2022,01,25,17,54,1.90
2022,01,25,17,55,1.90
2022,01,25,17,56,1.90
2022,01,25,17,57,1.80
2022,01,25,17,58,1.80
2022,01,25,17,59,1.80
2022,01,25,18,00,1.80
2022,01,25,18,01,1.80
2022,01,25,18,02,1.80
2022,01,25,18,03,1.70
2022,01,25,18,04,1.70
2022,01,25,18,05,1.70
2022,01,25,18,06,1.70
2022,01,25,18,07,1.70
2022,01,25,18,08,1.70
2022,01,25,18,09,1.70
2022,01,25,18,10,1.70
2022,01,25,18,11,1.70
2022,01,25,18,12,1.70
2022,01,25,18,13,1.70
2022,01,25,18,14,1.70
2022,01,25,18,15,1.70
2022,01,25,18,16,1.70
2022,01,25,18,17,1.70
2022,01,25,18,18,1.70
2022,01,25,18,19,1.70
2022,01,25,18,20,1.70
2022,01,25,18,21,1.70
2022,01,25,18,22,1.70
2022,01,25,18,23,1.70
2022,01,25,18,24,1.70
2022,01,25,18,25,1.70
2022,01,25,18,26,1.70
2022,01,25,18,27,1.70
2022,01,25,18,28,1.70
2022,01,25,18,29,1.70
2022,01,25,18,30,1.60
2022,01,25,18,31,1.60
2022,01,25,18,32,1.60
2022,01,25,18,33,1.60
2022,01,25,18,34,1.60
2022,01,25,18,35,1.60
2022,01,25,18,36,1.60
2022,01,25,18,37,1.60
2022,01,25,18,38,1.60
2022,01,25,18,39,1.60
2022,01,25,18,40,1.50
2022,01,25,18,41,1.50
2022,01,25,18,42,1.50
2022,01,25,18,43,1.50
2022,01,25,18,44,1.50
2022,01,25,18,45,1.50
2022,01,25,18,46,1.50
2022,01,25,18,47,1.50
2022,01,25,18,48,1.50
2022,01,25,18,49,1.50
2022,01,25,18,50,1.40
2022,01,25,18,51,1.40
2022,01,25,18,52,1.40
2022,01,25,18,53,1.40
2022,01,25,18,54,1.40
2022,01,25,18,55,1.40
2022,01,25,18,56,1.30
2022,01,25,18,57,1.30
2022,01,25,18,58,1.30
2022,01,25,18,59,1.30
2022,01,25,19,00,1.30
2022,01,25,19,01,1.30
2022,01,25,19,02,1.30
2022,01,25,19,03,1.30
2022,01,25,19,04,1.30
2022,01,25,19,05,1.30
2022,01,25,19,06,1.30
2022,01,25,19,07,1.30
2022,01,25,19,08,1.30
2022,01,25,19,09,1.30
2022,01,25,19,10,1.30
2022,01,25,19,11,1.30
2022,01,25,19,12,1.30
2022,01,25,19,13,1.30
2022,01,25,19,14,1.30
2022,01,25,19,15,1.30
2022,01,25,19,16,1.30
2022,01,25,19,17,1.30
2022,01,25,19,18,1.30
2022,01,25,19,19,1.30
2022,01,25,19,20,1.30
2022,01,25,19,21,1.30
2022,01,25,19,22,1.30
2022,01,25,19,23,1.30
2022,01,25,19,24,1.30
2022,01,25,19,25,1.30
2022,01,25,19,26,1.30
2022,01,25,19,27,1.30
2022,01,25,19,28,1.30
2022,01,25,19,29,1.30
2022,01,25,19,30,1.30
2022,01,25,19,31,1.30
2022,01,25,19,32,1.30
2022,01,25,19,33,1.30
2022,01,25,19,34,1.30
2022,01,25,19,35,1.30
2022,01,25,19,36,1.30
2022,01,25,19,37,1.30
2022,01,25,19,38,1.30
2022,01,25,19,39,1.30
2022,01,25,19,40,1.30
2022,01,25,19,41,1.30
2022,01,25,19,42,1.30
2022,01,25,19,43,1.30
2022,01,25,19,44,1.30
2022,01,25,19,45,1.30
2022,01,25,19,46,1.30
2022,01,25,19,47,1.30
2022,01,25,19,48,1.30
2022,01,25,19,49,1.30
2022,01,25,19,50,1.30
2022,01,25,19,51,1.30
2022,01,25,19,52,1.30
2022,01,25,19,53,1.30
2022,01,25,19,54,1.30
2022,01,25,19,55,1.30
2022,01,25,19,56,1.30
2022,01,25,19,57,1.30
2022,01,25,19,58,1.30
2022,01,25,19,59,1.30
2022,01,25,20,00,1.30
2022,01,25,20,01,1.30
2022,01,25,20,02,1.20
2022,01,25,20,03,1.20
2022,01,25,20,04,1.20
2022,01,25,20,05,1.20
2022,01,25,20,06,1.20
2022,01,25,20,07,1.20
2022,01,25,20,08,1.20
2022,01,25,20,09,1.20
2022,01,25,20,10,1.20
2022,01,25,20,11,1.20
2022,01,25,20,12,1.20
2022,01,25,20,13,1.20
2022,01,25,20,14,1.20
2022,01,25,20,15,1.30
2022,01,25,20,16,1.30
2022,01,25,20,17,1.30
2022,01,25,20,18,1.30
2022,01,25,20,19,1.30
2022,01,25,20,20,1.30
2022,01,25,20,21,1.30
2022,01,25,20,22,1.30
2022,01,25,20,23,1.30
2022,01,25,20,24,1.30
2022,01,25,20,25,1.30
2022,01,25,20,26,1.30
2022,01,25,20,27,1.30
2022,01,25,20,28,1.30
2022,01,25,20,29,1.30
2022,01,25,20,30,1.30
2022,01,25,20,31,1.30
2022,01,25,20,32,1.30
2022,01,25,20,33,1.30
2022,01,25,20,34,1.30
2022,01,25,20,35,1.30
2022,01,25,20,36,1.30
2022,01,25,20,37,1.30
2022,01,25,20,38,1.30
2022,01,25,20,39,1.30
2022,01,25,20,40,1.30
2022,01,25,20,41,1.30
2022,01,25,20,42,1.30
2022,01,25,20,43,1.30
2022,01,25,20,44,1.30
2022,01,25,20,45,1.30
2022,01,25,20,46,1.30
2022,01,25,20,47,1.30
2022,01,25,20,48,1.30
2022,01,25,20,49,1.30
2022,01,25,20,50,1.30
2022,01,25,20,51,1.30
2022,01,25,20,52,1.30
2022,01,25,20,53,1.30
2022,01,25,20,54,1.30
2022,01,25,20,55,1.30
2022,01,25,20,56,1.30
2022,01,25,20,57,1.30
2022,01,25,20,58,1.30
2022,01,25,20,59,1.30
2022,01,25,21,00,1.30
2022,01,25,21,01,1.30
2022,01,25,21,02,1.30
2022,01,25,21,03,1.30
2022,01,25,21,04,1.30
2022,01,25,21,05,1.30
2022,01,25,21,06,1.30
2022,01,25,21,07,1.30
2022,01,25,21,08,1.30
2022,01,25,21,09,1.30
2022,01,25,21,10,1.30
2022,01,25,21,11,1.20
2022,01,25,21,12,1.20
2022,01,25,21,13,1.20
2022,01,25,21,14,1.20
2022,01,25,21,15,1.20
2022,01,25,21,16,1.20
2022,01,25,21,17,1.20
2022,01,25,21,18,1.20
2022,01,25,21,19,1.10
2022,01,25,21,20,1.10
2022,01,25,21,21,1.00
2022,01,25,21,22,1.00
2022,01,25,21,23,0.90
2022,01,25,21,24,0.90
2022,01,25,21,25,0.90
2022,01,25,21,26,0.90
2022,01,25,21,27,0.90
2022,01,25,21,28,0.90
2022,01,25,21,29,0.90
2022,01,25,21,30,0.90
2022,01,25,21,31,0.90
2022,01,25,21,32,0.90
2022,01,25,21,33,0.90
2022,01,25,21,34,0.90
2022,01,25,21,35,0.90
2022,01,25,21,36,0.90
2022,01,25,21,37,0.90
2022,01,25,21,38,0.80
2022,01,25,21,39,0.80
2022,01,25,21,40,0.80
2022,01,25,21,41,0.80
2022,01,25,21,42,0.80
2022,01,25,21,43,0.80
2022,01,25,21,44,0.80
2022,01,25,21,45,0.80
2022,01,25,21,46,0.80
2022,01,25,21,47,0.80
2022,01,25,21,48,0.80
2022,01,25,21,49,0.80
2022,01,25,21,50,0.80
2022,01,25,21,51,0.80
2022,01,25,21,52,0.80
2022,01,25,21,53,0.80